Regional Weather Roundup
Issued by NWS Grand Forks, ND

Home | Current Version | Previous Version | Graphics & Text | Print | Product List | Glossary On
Versions: 1 2 3 4 5 6 7 8 9 10 11 12 13 14 15 16 17 18 19 20 21 22 23 24 25 26 27 28 29 30 31 32 33 34 35 36 37 38 39 40 41 42 43 44 45 46 47 48 49 50
000
ASUS43 KFGF 261110
RWRFGF
PRAIRIE TO PINES  WEATHER ROUNDUP
NATIONAL WEATHER SERVICE EASTERN NORTH DAKOTA/GRAND FORKS ND
500 AM CST SUN FEB 26 2017

 **SATELLITE DATA USED TO AUGMENT SKY COVER AT AUTOMATED STATIONS**
 *****  WEATHER ACROSS EASTERN NORTH DAKOTA  *****

CITY           SKY/WX    TMP DP  RH WIND       PRES   REMARKS
GRAND FORKS    MOCLDY     7   1  76 NW6       29.76R WCI  -3
GRAND FRKS AFB FAIR       5   2  86 N5        29.76S WCI  -4
DEVILS LAKE    FAIR      -1  -3  91 NW6       29.75R WCI -13
FARGO          CLOUDY    16  11  80 MISG      29.73R
WAHPETON ARPT  CLOUDY   N/A N/A N/A W9        29.67S
$$

 ***** WEATHER ACROSS CENTRAL AND WESTERN NORTH DAKOTA  *****

CITY           SKY/WX    TMP DP  RH WIND       PRES   REMARKS
BISMARCK       FAIR      12   7  80 NW3       29.75S
MINOT          FAIR       0  -5  79 SW8       29.73S WCI -14
JAMESTOWN      FLURRIES  15  11  83 N14       29.72R WCI   0
MINOT AFB      FAIR      -6 -11  81 W6        29.73S WCI -19
GARRISON         N/A      1  -3  83 N3        29.72F
WILLISTON      CLOUDY    10   8  92 CALM      29.71S
DICKINSON      FLURRIES  14  10  84 E6        29.64S WCI   5
HETTINGER      MOCLDY     8   4  83 CALM      29.68S
$$

 *****  OTHER AIRPORT OBSERVATIONS IN OUR AREA  *****

CITY           SKY/WX    TMP DP  RH WIND       PRES   REMARKS
WALHALLA       NOT AVBL
GRAFTON AIRPOR FAIR       7   7 100 NW6       29.79R WCI  -3
VALLEY CITY AR FLURRIES  14  14 100 N13       29.73S WCI   0
CANDO          NOT AVBL
CAVALIER APRT    N/A      5   0  78 W5        29.77R WCI  -4
GWINNER        CLOUDY    27  23  86 NW18      29.70R WCI  13
ROLLA          FAIR      -2  -4  92 W7        29.71S WCI -16
 ***** THE ABOVE OBSERVATIONS ARE NON NWS ARE NOT QUALITY
       CONTROLLED AND MAY MIS-REPORT RAIN FOR SNOW...
$$

  *****  WEATHER ACROSS NORTHERN MINNESOTA  *****

CITY           SKY/WX    TMP DP  RH WIND       PRES   REMARKS
FLAG ISLAND    FAIR       5   0  78 W7        29.70R WCI  -7
WARROAD        FAIR       5   0  78 W3        29.72S
ROSEAU         FAIR       9   1  72 NW3       29.73R
HALLOCK        FAIR       5   1  85 CALM      29.76R
THF RVR FALLS    N/A    N/A N/A N/A MISG        N/A
BAUDETTE       CLOUDY     8   0  69 NW9       29.69S WCI  -5
WASKISH        LGT SNOW  10   9  92 NW5       29.69R WCI   2
CROOKSTON      CLOUDY    12   7  79 N10       29.76R WCI  -1
$$
  *****  WEATHER ACROSS CENTRAL AND WEST MINNESOTA  *****

CITY           SKY/WX    TMP DP  RH WIND       PRES   REMARKS
FOSSTON        LGT SNOW  10   9  92 N12       29.69S WCI  -4
BEMIDJI        LGT SNOW  13  10  87 N8        29.66R WCI   1
PARK RAPIDS    LGT SNOW  23  19  85 SW5       29.62S FOG     WCI  17
ELBOW LAKE     LGT SNOW  24  23  99 W5        29.67S WCI  18
WADENA         LGT SNOW  19  18  93 CALM      29.63F
DETROIT LAKES  FLURRIES  21  19  93 N15       29.65R WCI   8
MOORHEAD       MIX PCPN  16  12  86 N17       29.73R WCI   0
FERGUS FALLS   LGT SNOW  23  23 100 SW7       29.70F WCI  15
MORRIS MN      CLOUDY    25  25 100 SW5       29.68F FOG     WCI  19
STAPLES        FOG       19  19 100 CALM      29.65S VSB 1
$$
  *****  WEATHER ELSEWHERE ACROSS MINNESOTA  *****

CITY           SKY/WX    TMP DP  RH WIND       PRES   REMARKS
DULUTH         CLOUDY    25  22  88 SW8       29.62S WCI  16
INTRNTL FALLS  LGT SNOW  11   6  81 NW5       29.66S WCI   3
ELY            MOCLDY    16  14  93 CALM      29.61F
CLOQUET        CLOUDY    25  21  86 SW5       29.63S WCI  19
WHEATON        MOCLDY    23  21  93 SW6       29.71S WCI  16
BRAINERD       CLOUDY    20  19  96 W6        29.64F FOG     WCI  12
HIBBING        CLOUDY    19  17  92 CALM      29.62S
ALEXANDRIA     LGT SNOW  25  23  92 SW8       29.66F FOG     WCI  16
SAINT CLOUD    CLOUDY    25  21  85 SW10      29.69S WCI  15
MINNEAPOLIS    CLOUDY    25  16  68 SW10      29.74F WCI  15
$$

  *****  WEATHER ACROSS SOUTH DAKOTA  *****

CITY           SKY/WX    TMP DP  RH WIND       PRES   REMARKS
SIOUX FALLS    FAIR      18  15  88 SW5       29.76R WCI  11
BROOKINGS      FAIR      18  16  92 SW5       29.71R WCI  11
WATERTOWN      FAIR      23  22  96 W8        29.68S WCI  14
HURON          FAIR      23  20  88 W9        29.74R WCI  13
SISSETON         N/A     29  25  85 NW21G29   29.68R WCI  16
ABERDEEN       FAIR      23  18  81 NW10      29.72R WCI  12
MITCHELL       FAIR      24  18  77 W12       29.77R WCI  13
PIERRE         FAIR      24  19  81 W10       29.74R WCI  14
MOBRIDGE       MOCLDY    21  16  81 NW8       29.71R WCI  11
RAPID CITY     FAIR      21  11  65 W10       29.72S WCI  10
$$

  *****  SOME WEATHER IN NEARBY STATES *****

CITY           SKY/WX    TMP DP  RH WIND       PRES   REMARKS
GLASGOW MT     CLOUDY    17  14  88 NE5       29.65R WCI  10
GREAT FALLS MT CLOUDY    26  17  68 NW10      29.71S WCI  16
CHEYENNE WY    FAIR      12  -3  51 W13       29.74F WCI  -3
SCOTTSBLUFF NE FAIR       9   2  73 N6        29.82R WCI  -1
OMAHA NE       MOCLDY    34  21  59 W12       29.86S
DES MOINES IA  FAIR      31  19  61 W10       29.87R WCI  22
DAVENPORT IA   CLOUDY    30  16  56 S17       29.95F WCI  18
CHICAGO IL     CLOUDY    25  18  74 S8        30.01S WCI  16
EAU CLAIRE WI  FAIR      20  14  77 S3        29.75F
LA CROSSE WI   FAIR      28  19  69 S10       29.81F WCI  19
$$

  *****  SOME NATIONAL WEATHER *****

CITY           SKY/WX    TMP DP  RH WIND       PRES   REMARKS
LA GUARDIA NY  FAIR      39  19  44 NW18G26   29.85R
RALEIGH NC     FAIR      38  18  44 NW5       30.08R
ATLANTA GA     FAIR      37  21  52 NW12      30.13R
NEW ORLEANS LA FAIR      51  36  56 E9        30.13R
OKLAHOMA CITY  CLOUDY    37  23  56 S14       29.91F
ALBUQUERQUE NM FAIR      39   9  29 SW9       29.89R
SALT LAKE CITY FAIR      23  15  71 SE9       29.96F WCI  13
LOS ANGELES CA CLOUDY    52  44  74 NW9       30.00F
BOISE ID       MOCLDY    30  19  63 SE10      29.89F WCI  21
SEATTLE WA     LGT RAIN  37  36  96 SE14      29.79F
$$

*** WEATHER ACROSS MANITOBA...SASKATCHEWAN AND ONTARIO ***
                ***ONTARIO***

CITY           SKY/WX    TMP DP  RH WIND       PRES   REMARKS
GERALDTON      CLEAR     -4  -8  84 CALM      29.63S
THUNDER BAY    CLOUDY    14  10  85 W3        29.65F
SIOUX LOOKOUT  LGT SNOW  10   7  85 W7        29.58S VSB 1   WCI   0
TORONTO        CLOUDY    27  14  59 SW9       29.93R WCI  17
BIG TROUT LK   MOCLDY    -6  -9  84 W8        29.57S WCI -21
PICKLE LAKE    FLURRIES  -2  -8  78 W3        29.57
DRYDEN         LGT SNOW  10   7  85 W7        29.60S WCI   0
KENORA         FLURRIES   7   3  85 NW5       29.66R WCI  -2
$$
                *** MANITOBA***

CITY           SKY/WX    TMP DP  RH WIND       PRES   REMARKS
BRANDON        CLEAR     -4  -9  77 W7        29.73S WCI -18
DAUPHIN        CLEAR      3  -2  78 W14       29.71F WCI -15
ISLAND LAKE    CRYSTALS  -9 -13  84 VRB2      29.64S
PILOT MOUND      N/A      0  -4  85 W6          N/A  WCI -12
THE PAS        PTCLDY    -2  -8  78 SE5       29.64F WCI -12
THOMPSON       CLEAR    -18 -24  76 CALM      29.66S
WINNIPEG       MOCLDY     1  -4  78 W7        29.75S WCI -11
LYNN LAKE      FLURRIES -18 -22  83 N6        29.66R WCI -33
CHURCHILL      CRYSTALS -26 -31  75 W8        29.68S WCI -45
GILLAM         FLURRIES -18 -26  69 NW6       29.64R WCI -33
$$
                ***SASKATCHEWAN***

CITY           SKY/WX    TMP DP  RH WIND       PRES   REMARKS
ESTEVAN        CRYSTALS  -2  -6  84 SW6       29.70S WCI -14
KINDERSLEY     MOCLDY    14  10  85 NW8       29.68R WCI   3
LLOYDMINSTER   FLURRIES  16  12  86 W8G25     29.69S WCI   5
PRINCE ALBERT  FLURRIES   7   3  85 W3        29.64F
REGINA         CLOUDY    10   7  85 S3        29.66F
YORKTON        LGT SNOW   7   3  85 SW6       29.65S WCI  -3
N. BATTLEFORD  CLOUDY    10   9  92 NW9       29.72R WCI  -2
LA RONGE       FLURRIES   9   1  72 NW17      29.62R WCI -10
SASKATOON      PTCLDY     7   5  92 NW9       29.68R WCI  -7
SWIFT CURRENT  LGT SNOW  16  16 100 W5        29.61S WCI   9
$$
NOTE: THESE ARE AUTOMATED STATIONS WITH LIMITED QUALITY CONTROL
      "FAIR" INDICATES FEW OR NO CLOUDS BELOW 12,000 FEET WITH NO
      SIGNIFICANT WEATHER AND/OR OBSTRUCTIONS TO VISIBILITY.
      SKY/WX - SKY CONDITION AND SIGNIFICANT WEATHER.
      TMP - AIR TEMPERATURE.    DP   - DEWPOINT TEMPERATURE.
      RH  - RELATIVE HUMIDITY.  PRES - PRESSURE.
      HX  - HEAT INDEX.         WCI  - WIND CHILL INDEX.
$



USA.gov is the U.S. government's official web portal to all federal, state and local government web resources and services.